Regional Weather Roundup
Issued by NWS

Home | Current Version | Previous Version | Graphics & Text | Print | Product List | Glossary On
Versions: 1 2 3 4 5 6 7 8 9 10 11 12 13 14 15 16 17 18 19 20 21 22 23 24 25 26 27 28 29 30 31 32 33 34 35 36 37 38 39 40 41 42 43 44 45 46 47 48 49 50
805
ASUS43 KBIS 292002
RWRND

NORTH DAKOTA REGIONAL WEATHER ROUNDUP
NATIONAL WEATHER SERVICE BISMARCK ND
300 PM CDT MON MAY 29 2017

NOTE: "FAIR" INDICATES FEW OR NO CLOUDS BELOW 12,000 FEET WITH NO
SIGNIFICANT WEATHER AND/OR OBSTRUCTIONS TO VISIBILITY.


NDZ001>003-009>011-017-292100-
NORTHWEST NORTH DAKOTA

CITY           SKY/WX    TMP DP  RH WIND       PRES   REMARKS
WILLISTON      PTSUNNY   67  33  28 NW21G28   30.09F
MINOT          CLOUDY    63  38  39 NW22G29   29.99S
MINOT AFB      PTSUNNY   62  37  39 N26G35    29.97F
$$

NDZ018>021-031>035-040>046-292100-
SOUTHWEST NORTH DAKOTA

CITY           SKY/WX    TMP DP  RH WIND       PRES   REMARKS
BISMARCK       CLOUDY    62  36  37 NW15G25   30.03F
DICKINSON      FAIR      63  29  27 NW20G31   30.07F
GARRISON         N/A     61  37  41 NW24G35   30.01S
HETTINGER ARPT MOSUNNY   66  33  29 NW24G33   30.10F
$$

NDZ004>008-012>016-024-026-027-054-292100-
NORTHEAST NORTH DAKOTA

CITY           SKY/WX    TMP DP  RH WIND       PRES   REMARKS
GRAND FORKS    PTSUNNY   60  49  66 NW15      29.87S
GRND FRKS AFB  LGT RAIN  56  49  80 N8        29.88S
DEVILS LAKE    LGT RAIN  55  45  68 NW17      29.93S
$$

NDZ022-023-025-028>030-036>039-047>053-292100-
SOUTHEAST NORTH DAKOTA

CITY           SKY/WX    TMP DP  RH WIND       PRES   REMARKS
FARGO          CLOUDY    59  46  62 NW22G30   29.89R
$$





USA.gov is the U.S. government's official web portal to all federal, state and local government web resources and services.